Shelton, WA
on Thursday, November 15, 2012

Thursday
Previous Day Next Day
Daily Summary
 ActualAverage (KOLM)Record (KOLM)
Temperature
Mean Temperature °F / °C 43°F / 6°C  
Max Temperature 50°F / 10°C 50°F / 10°C 63°F / 17°C (2001)
Min Temperature 39°F / 4°C 37°F / 3°C -1°F / -18°C (1955)
Degree Days
Heating Degree Days 20 22  
Month to date heating degree days 300  
Since 1 July heating degree days 1094  
Cooling Degree Days 0 0  
Month to date cooling degree days 0  
Year to date cooling degree days 106  
Moisture
Dew Point 41°F / 5°C   
Average Humidity 94    
Maximum Humidity 100    
Minimum Humidity 77    
Precipitation
Precipitation 0.00 in / 0.00 cm 0.30 in / 7.62 cm 1.35 in / 3.43 cm (1973)
Month to date precipitation 4.07  
Year to date precipitation 37.98  
Wind
Wind Speed 2 mph / 3 km/h   
Max Wind Speed 6 mph / 10 km/h   
Max Gust Speed mph / km/h   
Visibility 7 miles / 12 kilometers   
Events     

Key: T is trace of precipitation, MM is missing value
Source: NWS Daily Summary
Time(PST)TemperatureDew PointHumidity Pressure Visibility Wind DirectionWind SpeedGust SpeedPrecipitationEvents Conditions
12:21 AM 41.0°F / 5.0°C 41.0°F / 5.0°C 100% 30.24 in / 1023.9 hPa 2.5 miles / 4.0 kilometers North 4.6 mph / 7.4 km/h - N/A   Overcast
12:46 AM 41.0°F / 5.0°C 41.0°F / 5.0°C 100% 30.23 in / 1023.6 hPa 1.5 miles / 2.4 kilometers North 3.5 mph / 5.6 km/h - N/A   Overcast
12:53 AM 41.0°F / 5.0°C 41.0°F / 5.0°C 100% 30.24 in / 1024.0 hPa 1.2 miles / 2.0 kilometers North 5.8 mph / 9.3 km/h - N/A   Overcast
1:43 AM 41.0°F / 5.0°C 41.0°F / 5.0°C 100% 30.22 in / 1023.2 hPa 2.5 miles / 4.0 kilometers Calm Calm - N/A   Overcast
1:53 AM 41.0°F / 5.0°C 41.0°F / 5.0°C 100% 30.23 in / 1023.5 hPa 4.0 miles / 6.4 kilometers Calm Calm - N/A   Overcast
2:53 AM 41.0°F / 5.0°C 41.0°F / 5.0°C 100% 30.22 in / 1023.1 hPa 3.0 miles / 4.8 kilometers North 3.5 mph / 5.6 km/h - N/A   Overcast
3:37 AM 39.2°F / 4.0°C 39.2°F / 4.0°C 100% 30.19 in / 1022.2 hPa 2.0 miles / 3.2 kilometers Calm Calm - N/A   Overcast
3:49 AM 39.2°F / 4.0°C 39.2°F / 4.0°C 100% 30.18 in / 1021.9 hPa 1.8 miles / 2.8 kilometers Calm Calm - N/A   Overcast
3:53 AM 39.0°F / 3.9°C 39.0°F / 3.9°C 100% 30.19 in / 1022.4 hPa 1.8 miles / 2.8 kilometers Calm Calm - N/A   Overcast
4:10 AM 39.2°F / 4.0°C 39.2°F / 4.0°C 100% 30.18 in / 1021.9 hPa 2.5 miles / 4.0 kilometers NE 3.5 mph / 5.6 km/h - N/A   Overcast
4:24 AM 39.2°F / 4.0°C 39.2°F / 4.0°C 100% 30.18 in / 1021.9 hPa 3.0 miles / 4.8 kilometers NNE 3.5 mph / 5.6 km/h - N/A   Overcast
4:53 AM 39.0°F / 3.9°C 39.0°F / 3.9°C 100% 30.19 in / 1022.1 hPa 10.0 miles / 16.1 kilometers North 4.6 mph / 7.4 km/h - N/A   Overcast
5:53 AM 39.9°F / 4.4°C 39.9°F / 4.4°C 100% 30.17 in / 1021.4 hPa 10.0 miles / 16.1 kilometers Calm Calm - N/A   Overcast
6:25 AM 39.2°F / 4.0°C 39.2°F / 4.0°C 100% 30.14 in / 1020.5 hPa 2.0 miles / 3.2 kilometers East 4.6 mph / 7.4 km/h - N/A   Overcast
6:32 AM 39.2°F / 4.0°C 39.2°F / 4.0°C 100% 30.14 in / 1020.5 hPa 1.5 miles / 2.4 kilometers East 3.5 mph / 5.6 km/h - N/A   Overcast
6:53 AM 39.9°F / 4.4°C 39.9°F / 4.4°C 100% 30.15 in / 1021.0 hPa 2.0 miles / 3.2 kilometers Calm Calm - N/A   Overcast
7:13 AM 39.2°F / 4.0°C 39.2°F / 4.0°C 100% 30.13 in / 1020.2 hPa 5.0 miles / 8.0 kilometers Calm Calm - N/A   Overcast
7:53 AM 39.9°F / 4.4°C 39.9°F / 4.4°C 100% 30.14 in / 1020.5 hPa 5.0 miles / 8.0 kilometers Calm Calm - N/A   Overcast
8:53 AM 41.0°F / 5.0°C 39.9°F / 4.4°C 96% 30.12 in / 1019.8 hPa 10.0 miles / 16.1 kilometers NE 5.8 mph / 9.3 km/h - N/A   Overcast
9:53 AM 43.0°F / 6.1°C 41.0°F / 5.0°C 93% 30.10 in / 1019.1 hPa 10.0 miles / 16.1 kilometers Calm Calm - N/A   Overcast
10:53 AM 42.1°F / 5.6°C 41.0°F / 5.0°C 96% 30.08 in / 1018.6 hPa 10.0 miles / 16.1 kilometers East 4.6 mph / 7.4 km/h - N/A   Overcast
11:39 AM 44.6°F / 7.0°C 41.0°F / 5.0°C 87% 30.04 in / 1017.2 hPa 10.0 miles / 16.1 kilometers Calm Calm - N/A   Overcast
11:53 AM 44.1°F / 6.7°C 41.0°F / 5.0°C 89% 30.05 in / 1017.5 hPa 10.0 miles / 16.1 kilometers Variable 3.5 mph / 5.6 km/h - N/A   Overcast
12:53 PM 46.0°F / 7.8°C 42.1°F / 5.6°C 86% 30.03 in / 1016.8 hPa 10.0 miles / 16.1 kilometers ESE 5.8 mph / 9.3 km/h - N/A   Overcast
1:23 PM 46.4°F / 8.0°C 42.8°F / 6.0°C 87% 30.00 in / 1015.8 hPa 10.0 miles / 16.1 kilometers Calm Calm - N/A   Overcast
1:53 PM 50.0°F / 10.0°C 43.0°F / 6.1°C 77% 30.01 in / 1016.0 hPa 10.0 miles / 16.1 kilometers Calm Calm - N/A   Overcast
2:26 PM 48.2°F / 9.0°C 42.8°F / 6.0°C 82% 29.99 in / 1015.5 hPa 10.0 miles / 16.1 kilometers SE 4.6 mph / 7.4 km/h - N/A   Scattered Clouds
2:53 PM 48.0°F / 8.9°C 42.1°F / 5.6°C 80% 30.00 in / 1015.8 hPa 10.0 miles / 16.1 kilometers ENE 4.6 mph / 7.4 km/h - N/A   Clear
3:53 PM 46.9°F / 8.3°C 42.1°F / 5.6°C 83% 29.99 in / 1015.3 hPa 10.0 miles / 16.1 kilometers ESE 4.6 mph / 7.4 km/h - N/A   Clear
4:08 PM 46.4°F / 8.0°C 41.0°F / 5.0°C 81% 29.97 in / 1014.8 hPa 10.0 miles / 16.1 kilometers East 3.5 mph / 5.6 km/h - N/A   Mostly Cloudy
4:53 PM 45.0°F / 7.2°C 41.0°F / 5.0°C 86% 29.98 in / 1015.1 hPa 10.0 miles / 16.1 kilometers East 4.6 mph / 7.4 km/h - N/A   Overcast
5:53 PM 44.1°F / 6.7°C 41.0°F / 5.0°C 89% 29.98 in / 1015.1 hPa 10.0 miles / 16.1 kilometers Calm Calm - N/A   Overcast
6:29 PM 42.8°F / 6.0°C 41.0°F / 5.0°C 93% 29.96 in / 1014.4 hPa 10.0 miles / 16.1 kilometers Calm Calm - N/A   Overcast
6:53 PM 43.0°F / 6.1°C 41.0°F / 5.0°C 93% 29.98 in / 1015.0 hPa 10.0 miles / 16.1 kilometers Calm Calm - N/A   Overcast
7:02 PM 42.8°F / 6.0°C 41.0°F / 5.0°C 93% 29.96 in / 1014.4 hPa 10.0 miles / 16.1 kilometers Calm Calm - N/A   Overcast
7:16 PM 42.8°F / 6.0°C 41.0°F / 5.0°C 93% 29.95 in / 1014.1 hPa 10.0 miles / 16.1 kilometers East 3.5 mph / 5.6 km/h - N/A   Overcast
7:31 PM 42.8°F / 6.0°C 41.0°F / 5.0°C 93% 29.95 in / 1014.1 hPa 10.0 miles / 16.1 kilometers Calm Calm - N/A   Overcast
7:53 PM 42.1°F / 5.6°C 41.0°F / 5.0°C 96% 29.96 in / 1014.5 hPa 10.0 miles / 16.1 kilometers Calm Calm - N/A   Overcast
8:50 PM 42.8°F / 6.0°C 41.0°F / 5.0°C 93% 29.95 in / 1014.1 hPa 10.0 miles / 16.1 kilometers Calm Calm - N/A   Overcast
8:53 PM 42.1°F / 5.6°C 41.0°F / 5.0°C 96% 29.96 in / 1014.5 hPa 10.0 miles / 16.1 kilometers Calm Calm - N/A   Overcast
9:53 PM 41.0°F / 5.0°C 41.0°F / 5.0°C 100% 29.95 in / 1014.2 hPa 10.0 miles / 16.1 kilometers Calm Calm - N/A   Overcast
10:53 PM 41.0°F / 5.0°C 39.9°F / 4.4°C 96% 29.94 in / 1013.8 hPa 10.0 miles / 16.1 kilometers Calm Calm - N/A   Overcast
11:10 PM 41.0°F / 5.0°C 39.2°F / 4.0°C 93% 29.93 in / 1013.4 hPa 10.0 miles / 16.1 kilometers Calm Calm - N/A   Overcast
11:53 PM 41.0°F / 5.0°C 39.9°F / 4.4°C 96% 29.94 in / 1013.7 hPa 10.0 miles / 16.1 kilometers Calm Calm - N/A   Overcast
Moon Phase
Nov. 15 Nov. 20 Nov. 28 Dec. 06 Dec. 13
Sunrise:07:17 AM (PST) Moon Rise:09:23 AM (PST)11/15
Sunset:04:36 PM (PST) Moon Set:06:29 PM (PST)11/15

Copyright © 2014 The Weather Underground, Inc.